ALPHASAT

Last updated on Thu Nov 06 2025 00:02:47 GMT+0000 (Coordinated Universal Time)

1 39215U 13038A 25308.87961168 .00000145 00000+0 00000+0 0 9997 2 39215 2.9605 3.1297 0004150 223.5785 159.2193 1.00271648 41776
UTC large
Height (km)
Speed (km/s)
/
Latitude / Longitude
Inclination (degrees)
Orbital Period (minutes)
Azimuth
Elevation
Range (km)
Doppler Factor

Next 0 passes for location: London (51.5072 / 0.1276)

Sorry there are no passes over London.